FW2335 Weather Reports


time (UTC)temp
C
wind
direction
speed
KPH
gust
KPH
rain 1hr
cm
rain 24hr
cm
rain mn
cm
humidity
%
barometer
mb
20260506045021 14 45 19.3 27.4 0.00 0.00 0.00 76 1011.8
20260506044521 14 45 20.9 29.0 0.00 0.00 0.00 77 1011.9
20260506044041 14 45 19.3 30.6 0.00 0.00 0.00 77 1011.8
20260506043521 14 45 20.9 29.0 0.00 0.00 0.00 77 1011.9
20260506043021 14 45 22.5 29.0 0.00 0.00 0.00 76 1011.9
20260506042541 14 45 19.3 25.7 0.00 0.00 0.00 77 1011.9
20260506042021 14 45 16.1 22.5 0.00 0.00 0.00 77 1011.8
20260506041521 14 45 17.7 24.1 0.00 0.00 0.00 77 1011.8
20260506041021 14 68 16.1 29.0 0.00 0.00 0.00 77 1011.7
20260506040521 14 45 20.9 27.4 0.00 0.00 0.00 77 1011.6
20260506040021 15 68 19.3 27.4 0.00 0.00 0.00 78 1011.6
20260506035521 15 68 20.9 29.0 0.00 0.00 0.00 80 1011.6
20260506035041 15 68 19.3 29.0 0.00 0.00 0.00 78 1011.6
20260506034521 15 68 16.1 25.7 0.00 0.00 0.00 78 1011.7
20260506034021 15 45 17.7 30.6 0.00 0.00 0.00 78 1011.8
20260506033521 15 68 19.3 29.0 0.00 0.00 0.00 78 1011.6
20260506033041 15 68 19.3 29.0 0.00 0.00 0.00 77 1011.5
20260506032521 15 45 14.5 25.7 0.00 0.00 0.00 77 1011.6
20260506032021 15 45 16.1 24.1 0.00 0.00 0.00 78 1011.4
20260506031541 15 68 12.9 22.5 0.00 0.00 0.00 78 1011.4
20260506031021 15 68 9.7 22.5 0.00 0.00 0.00 79 1011.3
20260506030541 15 68 14.5 24.1 0.00 0.00 0.00 79 1011.1
20260506030042 15 68 17.7 25.7 0.00 0.00 0.00 80 1011.0
20260506025521 15 68 20.9 27.4 0.00 0.00 0.00 79 1011.1
20260506025021 15 68 19.3 27.4 0.00 0.00 0.00 79 1010.9
20260506024521 15 68 16.1 25.7 0.00 0.00 0.00 80 1010.8
20260506024021 15 68 14.5 25.7 0.00 0.00 0.00 79 1010.6
20260506023521 15 68 17.7 25.7 0.00 0.00 0.00 80 1010.5
20260506023020 15 68 22.5 30.6 0.00 0.00 0.00 79 1010.5
20260506022601 15 68 16.1 22.5 0.00 0.00 0.00 81 1010.1
20260506022021 15 68 20.9 27.4 0.00 0.00 0.00 80 1009.6
20260506021755 16 68 22.5 30.6 0.00 0.00 0.00 81 1009.1
20260506021021 16 68 22.5 30.6 0.00 0.00 0.00 82 1008.9
20260506020521 16 68 20.9 29.0 0.00 0.00 0.00 81 1009.0
20260506020021 16 68 22.5 32.2 0.00 0.00 0.00 81 1008.9
20260506015521 16 68 20.9 29.0 0.00 0.00 0.00 80 1008.6
20260506015021 16 68 25.7 33.8 0.00 0.00 0.00 80 1008.7
20260506014601 16 68 19.3 33.8 0.00 0.00 0.00 81 1008.7
20260506014021 16 68 19.3 29.0 0.00 0.00 0.00 79 1008.7
20260506013521 16 68 20.9 29.0 0.00 0.00 0.00 79 1008.5
20260506013020 16 45 16.1 30.6 0.00 0.00 0.00 79 1008.2
20260506012601 16 68 19.3 32.2 0.00 0.00 0.00 79 1008.3
20260506012021 17 68 22.5 32.2 0.00 0.00 0.00 79 1008.1
20260506011521 17 68 24.1 33.8 0.00 0.00 0.00 79 1008.1
20260506011041 17 68 22.5 35.4 0.00 0.00 0.00 79 1008.0
20260506010521 17 68 19.3 30.6 0.00 0.00 0.00 79 1007.8
20260506010021 17 45 16.1 30.6 0.00 0.00 0.00 78 1007.7
20260506005521 17 68 19.3 32.2 0.00 0.00 0.00 77 1007.9
20260506005021 17 45 17.7 29.0 0.00 0.00 0.00 76 1008.1
20260506004521 17 45 20.9 30.6 0.00 0.00 0.00 76 1007.9
20260506004021 18 45 16.1 27.4 0.00 0.00 0.00 77 1008.0
20260506003521 18 45 17.7 25.7 0.00 0.00 0.00 75 1007.7
20260506003041 18 68 22.5 30.6 0.00 0.00 0.00 75 1007.6
20260506002521 18 68 25.7 33.8 0.00 0.00 0.00 75 1007.6
20260506002021 19 68 24.1 33.8 0.00 0.00 0.00 75 1007.6
20260506001520 19 45 24.1 32.2 0.00 0.00 0.00 75 1007.6
20260506001021 20 23 14.5 30.6 0.00 0.00 0.00 73 1007.5
20260506000521 20 45 17.7 32.2 0.00 0.00 0.00 74 1007.5
20260506000020 20 45 22.5 29.0 0.00 0.00 0.00 74 1007.3
20260505235521 20 45 17.7 29.0 0.00 0.00 0.00 74 1007.0
20260505235022 20 23 12.9 22.5 0.00 0.00 0.00 73 1007.4
20260505234541 20 338 11.3 19.3 0.00 0.00 0.00 74 1007.6
20260505234022 20 338 12.9 22.5 0.00 0.00 0.00 73 1007.4
20260505233521 20 338 11.3 20.9 0.00 0.00 0.00 73 1007.3
20260505233041 20 0 12.9 22.5 0.00 0.00 0.00 73 1007.3
20260505232520 20 0 12.9 24.1 0.00 0.00 0.00 73 1007.1
20260505232021 20 338 14.5 27.4 0.00 0.00 0.00 73 1007.0
20260505231521 20 338 12.9 25.7 0.00 0.00 0.00 73 1007.1
20260505231020 21 0 19.3 30.6 0.00 0.00 0.00 72 1007.4
20260505230520 21 338 16.1 30.6 0.00 0.00 0.00 71 1007.1
20260505230021 21 0 14.5 22.5 0.00 0.00 0.00 71 1007.1
20260505225520 21 338 12.9 22.5 0.00 0.00 0.00 71 1007.2
20260505225020 21 338 11.3 24.1 0.00 0.00 0.00 71 1007.2
20260505224520 21 338 14.5 24.1 0.00 0.00 0.00 69 1007.2
20260505224020 22 315 9.7 19.3 0.00 0.00 0.00 70 1006.9
20260505223521 22 315 14.5 22.5 0.00 0.00 0.00 70 1007.0
20260505223021 22 315 14.5 29.0 0.00 0.00 0.00 70 1006.9
20260505222520 22 315 14.5 29.0 0.00 0.00 0.00 70 1006.6
20260505222040 22 338 16.1 29.0 0.00 0.00 0.00 68 1006.7
20260505221541 22 338 9.7 19.3 0.00 0.00 0.00 70 1006.5
20260505221041 22 315 12.9 24.1 0.00 0.00 0.00 69 1006.5
20260505220521 22 315 8.0 17.7 0.00 0.00 0.00 69 1006.4
20260505220041 23 315 11.3 20.9 0.00 0.00 0.00 69 1006.4
20260505215520 23 338 11.3 22.5 0.00 0.00 0.00 69 1006.3
20260505215020 23 338 11.3 25.7 0.00 0.00 0.00 69 1006.2
20260505214520 23 338 12.9 25.7 0.00 0.00 0.00 68 1006.1
20260505214020 23 338 14.5 25.7 0.00 0.00 0.00 68 1006.2
20260505213540 23 315 11.3 22.5 0.00 0.00 0.00 68 1006.2
20260505213021 23 315 14.5 25.7 0.00 0.00 0.00 67 1006.1
20260505212521 24 338 12.9 24.1 0.00 0.00 0.00 67 1006.0
20260505212021 24 315 11.3 25.7 0.00 0.00 0.00 67 1006.1
20260505211521 25 338 8.0 19.3 0.00 0.00 0.00 67 1006.1
20260505211020 25 315 9.7 19.3 0.00 0.00 0.00 65 1006.3
20260505210521 25 338 8.0 20.9 0.00 0.00 0.00 65 1006.3
20260505210021 25 293 11.3 19.3 0.00 0.00 0.00 64 1006.3
20260505205520 25 315 9.7 20.9 0.00 0.00 0.00 63 1006.3
20260505205020 26 315 9.7 19.3 0.00 0.00 0.00 62 1006.4
20260505204522 26 315 11.3 27.4 0.00 0.00 0.00 61 1006.4
20260505204020 26 293 11.3 22.5 0.00 0.00 0.00 61 1006.4
20260505203520 26 315 11.3 25.7 0.00 0.00 0.00 61 1006.2
20260505203042 27 293 16.1 27.4 0.00 0.00 0.00 58 1006.1
20260505202523 27 293 17.7 29.0 0.00 0.00 0.00 57 1006.2
20260505202041 27 315 12.9 29.0 0.00 0.00 0.00 57 1006.1
20260505201524 27 315 14.5 27.4 0.00 0.00 0.00 56 1006.1
20260505201022 27 315 14.5 27.4 0.00 0.00 0.00 54 1006.2
20260505200522 27 293 14.5 29.0 0.00 0.00 0.00 55 1006.1
20260505200021 27 315 12.9 25.7 0.00 0.00 0.00 52 1006.1
20260505195522 28 270 11.3 24.1 0.00 0.00 0.00 52 1006.0
20260505195020 27 293 9.7 19.3 0.00 0.00 0.00 51 1006.0
20260505194522 28 293 11.3 24.1 0.00 0.00 0.00 49 1005.9
20260505194024 28 270 9.7 17.7 0.00 0.00 0.00 48 1005.8
20260505193522 27 293 11.3 24.1 0.00 0.00 0.00 46 1005.9
20260505193022 27 293 12.9 22.5 0.00 0.00 0.00 47 1005.9
20260505192523 27 293 11.3 29.0 0.00 0.00 0.00 48 1005.9
20260505192022 27 293 9.7 22.5 0.00 0.00 0.00 48 1005.8
20260505191521 27 293 14.5 27.4 0.00 0.00 0.00 47 1005.7
20260505191022 27 293 16.1 29.0 0.00 0.00 0.00 47 1005.8
20260505190523 28 270 16.1 30.6 0.00 0.00 0.00 50 1005.7
20260505190025 28 225 14.5 27.4 0.00 0.00 0.00 59 1005.5
20260505185523 28 248 16.1 27.4 0.00 0.00 0.00 59 1005.4
20260505185103 28 248 12.9 24.1 0.00 0.00 0.00 60 1005.2
20260505184522 28 248 16.1 33.8 0.00 0.00 0.00 59 1005.3
20260505184022 28 225 17.7 30.6 0.00 0.00 0.00 58 1005.2
20260505183526 28 248 17.7 30.6 0.00 0.00 0.00 57 1005.3
20260505183047 28 225 14.5 33.8 0.00 0.00 0.00 59 1005.2
20260505182523 28 225 14.5 20.9 0.00 0.00 0.00 63 1005.2
20260505182103 28 225 11.3 22.5 0.00 0.00 0.00 65 1005.2
20260505181525 28 225 11.3 19.3 0.00 0.00 0.00 65 1005.1
20260505181043 27 225 14.5 25.7 0.00 0.00 0.00 65 1005.2
20260505180523 27 225 14.5 22.5 0.00 0.00 0.00 66 1005.4
20260505180025 27 225 14.5 27.4 0.00 0.00 0.00 66 1005.3
20260505175523 27 225 16.1 25.7 0.00 0.00 0.00 65 1005.4
20260505175043 27 225 17.7 29.0 0.00 0.00 0.00 65 1005.4
20260505174522 27 225 20.9 32.2 0.00 0.00 0.00 66 1005.2
20260505174024 27 225 19.3 32.2 0.00 0.00 0.00 65 1005.2
20260505173522 27 225 14.5 27.4 0.00 0.00 0.00 66 1005.2
20260505173022 27 225 17.7 27.4 0.00 0.00 0.00 66 1005.2
20260505172522 27 225 24.1 33.8 0.00 0.00 0.00 65 1005.3
20260505172022 27 225 19.3 32.2 0.00 0.00 0.00 65 1005.4
20260505171557 27 225 19.3 30.6 0.00 0.00 0.00 67 1005.5
20260505171042 27 225 22.5 35.4 0.00 0.00 0.00 66 1004.9
20260505170522 27 225 17.7 30.6 0.00 0.00 0.00 67 1004.8
20260505170022 26 225 19.3 35.4 0.00 0.00 0.00 68 1005.0
20260505165522 26 225 20.9 35.4 0.00 0.00 0.00 68 1005.3
20260505165022 26 225 17.7 27.4 0.00 0.00 0.00 68 1005.2
20260505164522 26 225 16.1 29.0 0.00 0.00 0.00 69 1005.0
20260505164023 26 225 12.9 27.4 0.00 0.00 0.00 70 1004.9
20260505163522 26 225 14.5 27.4 0.00 0.00 0.00 71 1004.8
20260505163022 26 225 16.1 25.7 0.00 0.00 0.00 71 1004.9
20260505162522 25 225 14.5 24.1 0.00 0.00 0.00 71 1004.9
20260505162023 25 225 17.7 30.6 0.00 0.00 0.00 71 1005.0
20260505161542 25 225 14.5 25.7 0.00 0.00 0.00 71 1004.8
20260505161043 25 225 16.1 27.4 0.00 0.00 0.00 71 1004.8
20260505160522 25 225 16.1 29.0 0.00 0.00 0.00 72 1004.8
20260505153022 25 225 17.7 32.2 0.00 0.00 0.00 74 1004.4
20260505152522 25 225 20.9 30.6 0.00 0.00 0.00 73 1004.4
20260505152023 25 225 19.3 35.4 0.00 0.00 0.00 73 1004.5
20260505151704 25 225 19.3 35.4 0.00 0.00 0.00 74 1004.5
20260505151022 25 225 22.5 32.2 0.00 0.00 0.00 73 1004.4
20260505150522 25 225 19.3 37.0 0.00 0.00 0.00 74 1004.4
20260505140523 22 225 12.9 24.1 0.00 0.00 0.00 81 1004.3
20260505125023 21 225 11.3 20.9 0.00 0.00 0.00 86 1004.0
20260505124522 21 225 9.7 22.5 0.00 0.00 0.00 86 1003.9
20260505124022 21 225 11.3 19.3 0.00 0.00 0.00 87 1003.9
20260505123542 20 225 11.3 19.3 0.00 0.00 0.00 87 1003.9
20260505123022 20 225 8.0 17.7 0.00 0.00 0.00 87 1003.8
20260505122521 20 203 8.0 16.1 0.00 0.00 0.00 87 1003.7
20260505122102 20 203 8.0 17.7 0.00 0.00 0.00 87 1003.7
20260505121522 20 203 11.3 25.7 0.00 0.00 0.00 87 1003.6
20260505121021 20 225 11.3 24.1 0.00 0.00 0.00 86 1003.5
20260505120544 20 203 11.3 24.1 0.00 0.00 0.00 87 1003.4
20260505120033 20 203 12.9 22.5 0.00 0.00 0.00 87 1003.4
20260505115521 20 225 12.9 20.9 0.00 0.00 0.00 87 1003.3
20260505115022 20 225 11.3 20.9 0.00 0.00 0.00 87 1003.3
20260505114522 20 203 11.3 25.7 0.00 0.00 0.00 86 1003.3
20260505114022 20 180 9.7 19.3 0.00 0.00 0.00 86 1003.3
20260505113522 20 203 11.3 27.4 0.00 0.00 0.00 86 1003.2
20260505113021 20 203 11.3 32.2 0.00 0.00 0.00 86 1003.2
20260505112522 20 203 9.7 20.9 0.00 0.00 0.00 86 1003.3
20260505112043 20 203 9.7 19.3 0.00 0.00 0.00 86 1003.3
20260505111522 20 203 11.3 25.7 0.00 0.00 0.00 85 1003.4
20260505111022 21 225 8.0 17.7 0.00 0.00 0.00 85 1003.5
20260505110522 21 203 9.7 20.9 0.00 0.00 0.00 85 1003.4
20260505102024 21 225 14.5 30.6 0.00 0.00 0.00 83 1003.4
20260505101521 21 225 12.9 27.4 0.00 0.00 0.00 82 1003.3
20260505101022 21 225 11.3 19.3 0.00 0.00 0.00 82 1003.6
20260505100525 21 203 12.9 24.1 0.00 0.00 0.00 81 1003.6
20260505100022 21 203 12.9 29.0 0.00 0.00 0.00 81 1003.7
20260505095607 21 203 12.9 25.7 0.00 0.00 0.00 81 1003.4
20260505095041 21 203 14.5 29.0 0.00 0.00 0.00 81 1003.4
20260505094522 22 225 16.1 32.2 0.00 0.00 0.00 80 1003.2
20260505094102 22 225 17.7 32.2 0.00 0.00 0.00 80 1003.2
20260505093801 22 203 19.3 37.0 0.00 0.00 0.00 79 1003.2
20260505093758 22 203 17.7 35.4 0.00 0.00 0.00 79 1003.3
20260505091027 22 203 17.7 32.2 0.00 0.00 0.00 78 1003.3
20260505090522 22 203 20.9 41.8 0.00 0.00 0.00 78 1003.4
20260505090022 22 225 17.7 33.8 0.00 0.00 0.00 78 1003.5
20260505085543 22 203 14.5 30.6 0.00 0.00 0.00 77 1003.5
20260505085022 22 203 17.7 32.2 0.00 0.00 0.00 77 1003.5
20260505084522 22 225 17.7 32.2 0.00 0.00 0.00 77 1003.7
20260505084042 22 225 19.3 35.4 0.00 0.00 0.00 77 1003.6
20260505083521 22 203 17.7 35.4 0.00 0.00 0.00 77 1003.4
20260505083022 22 203 17.7 37.0 0.00 0.00 0.00 77 1003.5
20260505082542 22 225 17.7 32.2 0.00 0.00 0.00 76 1003.4
20260505082022 22 203 17.7 35.4 0.00 0.00 0.00 76 1003.4
20260505081521 22 203 19.3 33.8 0.00 0.00 0.00 76 1003.5
20260505081021 22 203 17.7 37.0 0.00 0.00 0.00 75 1003.5
20260505080521 22 225 17.7 32.2 0.00 0.00 0.00 75 1003.5
20260505080021 23 225 20.9 38.6 0.00 0.00 0.00 75 1003.5
20260505075521 23 203 17.7 35.4 0.00 0.00 0.00 75 1003.6
20260505075041 23 203 20.9 43.5 0.00 0.00 0.00 75 1003.7
20260505074521 23 225 19.3 32.2 0.00 0.00 0.00 75 1003.8
20260505074022 23 225 20.9 45.1 0.00 0.00 0.00 74 1003.9
20260505073521 23 203 19.3 35.4 0.00 0.00 0.00 74 1004.0
20260505073021 23 203 20.9 35.4 0.00 0.00 0.00 74 1004.0
20260505072521 23 225 20.9 37.0 0.00 0.00 0.00 74 1004.1
20260505072021 23 203 22.5 38.6 0.00 0.00 0.00 74 1004.3
20260505071521 23 225 20.9 35.4 0.00 0.00 0.00 74 1004.3
20260505071021 23 225 22.5 37.0 0.00 0.00 0.00 73 1004.4
20260505070522 23 225 24.1 38.6 0.00 0.00 0.00 73 1004.5
20260505070022 23 203 22.5 40.2 0.00 0.00 0.00 74 1004.6
20260505065522 23 225 20.9 38.6 0.00 0.00 0.00 74 1004.6
20260505065307 23 203 20.9 37.0 0.00 0.00 0.00 74 1004.6
20260505064522 23 203 19.3 40.2 0.00 0.00 0.00 75 1004.8
20260505064022 23 225 19.3 33.8 0.00 0.00 0.00 75 1004.8
20260505063521 23 225 20.9 37.0 0.00 0.00 0.00 75 1004.8
20260505063122 22 203 17.7 32.2 0.00 0.00 0.00 76 1004.7
20260505062521 22 203 17.7 32.2 0.00 0.00 0.00 76 1004.8
20260505062021 22 203 16.1 32.2 0.00 0.00 0.00 76 1004.8
20260505061522 22 203 17.7 33.8 0.00 0.00 0.00 76 1004.9
20260505061021 22 203 16.1 32.2 0.00 0.00 0.00 76 1004.9
20260505060521 22 203 17.7 37.0 0.00 0.00 0.00 76 1005.0
20260505060451 22 203 14.5 27.4 0.00 0.00 0.00 76 1004.9
20260505055521 22 203 14.5 30.6 0.00 0.00 0.00 76 1005.1
20260505055102 22 203 14.5 30.6 0.00 0.00 0.00 75 1005.1
20260505054706 23 203 14.5 30.6 0.00 0.00 0.00 75 1005.1
20260505054021 23 203 14.5 33.8 0.00 0.00 0.00 75 1005.1
20260505053521 23 203 14.5 29.0 0.00 0.00 0.00 74 1005.2
20260505053021 23 203 14.5 32.2 0.00 0.00 0.00 74 1005.2
20260505052521 23 203 12.9 32.2 0.00 0.00 0.00 74 1005.2
20260505052021 23 203 17.7 30.6 0.00 0.00 0.00 74 1005.1
20260505051521 23 203 17.7 35.4 0.00 0.00 0.00 73 1005.1
20260505051022 23 203 16.1 30.6 0.00 0.00 0.00 73 1005.1
20260505050522 23 203 16.1 40.2 0.00 0.00 0.00 73 1005.2